Regional Weather Roundup
Issued by NWS Lake Charles, LA

Home | Current Version | Previous Version | Text Only | Print | Product List | Glossary On
Versions: 1 2 3 4 5 6 7 8 9 10 11 12 13 14 15 16 17 18 19 20 21 22 23 24 25 26 27 28 29 30 31 32 33 34 35 36 37 38 39 40 41 42 43 44 45 46 47 48 49 50
000
ASUS44 KLCH 030910
RWRLCH
RWRLCH
REGIONAL WEATHER ROUNDUP
NATIONAL WEATHER SERVICE LAKE CHARLES LA
400 AM CDT SUN MAY 03 2015

Note: "fair" indicates few or no clouds below 12,000 feet with no
significant weather and/or obstructions to visibility.


ACROSS SOUTHEAST TEXAS

CITY           SKY/WX    TMP DP  RH WIND       PRES   REMARKS
BEAUMONT       CLEAR     59  58  96 SW32      30.02S
BEAUMONT CITY    N/A     58  58  97 CALM      30.03S
ORANGE         SUNNY     58  56  94 CALM      30.04S FOG
JASPER         NOT AVBL
$$

ACROSS CENTRAL LOUISIANA

CITY           SKY/WX    TMP DP  RH WIND       PRES   REMARKS
LEESVILLE      PTCLDY    60  57  90 SE1       30.02S
FULLERTON        N/A     60  55  83 CALM      30.01S HAZE
ALEXANDRIA INT PTCLDY    61  58  90 CALM      30.02S
ESLER FIELD    CLOUDY    59  57  93 CALM      30.04S
DERIDDER         N/A     60  57  91 CALM      30.05S
OAKDALE        SUNNY     57  56  95 CALM      30.03S FOG
OPELOUSAS        N/A    N/A N/A N/A CALM      30.04S
$$

ACROSS SOUTHWEST AND SOUTH CENTRAL LOUISIANA

CITY           SKY/WX    TMP DP  RH WIND       PRES   REMARKS
SULPHUR        SUNNY     61  61  99 CALM      30.04R FOG
LAKE CHARLES   CLEAR     61  59  93 CALM      30.03S
CHENNAULT INT  CLEAR     60  59  96 CALM      30.03S
CAMERON PHI    SUNNY     72  59  64 SW10      30.05S
DEQUINCY         N/A     56  56 100 CALM      30.03S
JENNINGS         N/A     62  61  97 CALM      30.03S
LAFAYETTE      CLEAR     63  62  97 CALM      30.04S FOG
NEW IBERIA     CLEAR     62  60  93 S3        30.05S
ABBEVILLE        N/A     60  59  99 CALM      30.04S FOG
PATTERSON      PTCLDY   N/A N/A N/A CALM      30.05F
SALT POINT       N/A     65  64  97 CALM      30.03S
$$

SELECTED SITES ACROSS THE REGION

CITY           SKY/WX    TMP DP  RH WIND       PRES   REMARKS
HOUSTON BUSH   PTCLDY    59  57  93 CALM      30.02S
HOUSTON HOBBY  PTCLDY    61  58  90 S3        30.01S
GALVESTON      MOCLDY    71  59  65 S10       30.03S
COLLEGE STAT   CLEAR     59  55  87 CALM      30.02S
CONROE         CLEAR     53  51  93 CALM      30.03R
HUNTSVILLE     CLEAR     61  56  83 S5        30.02S
LUFKIN         CLEAR     61  56  83 CALM      30.02S
SHREVEPORT     CLEAR     64  56  75 CALM      30.00F
MONROE         CLEAR     55  52  89 CALM      30.04S
NATCHEZ MS     CLEAR     61  52  72 SE5       30.05S
BATON ROUGE    CLEAR     60  58  92 CALM      30.04S
N.O. INTL ARPT MOCLDY    67  60  78 SE6       30.05S
SLIDELL        CLEAR     57  56  96 CALM      30.06S
$$

MARINE REPORTS

STATION/POSITION TIME  TEMP    WIND        PRES    VSBY  WAVE
                       AIR SEA DIR/SP/G                  HT/PER
                 (UTC) (F)     (DEG/KT/KT) (MB)    (MI)  (FT/S)
BUOY 30 S HIGH I 0850   73 74  170/ 12/ 16 1016.1F         2/ 3
SEA RIM ST PARK  0900   72     180/ 10/ 12 1017.2S
PORT ARTHUR      0800      71  190/  4/  5 1016.8S
SABINE PASS N    0800   69 72  210/  4/  6 1016.9R
TEXAS POINT      NOT AVBL
CALCASIEU PASS   0800   73 74  220/ 12/ 12   N/A
LK CHARLES BEACH 0800   66 72              1017.0S
MARSH ISLAND     0800   75     190/  2/  6   N/A           0
FRESH WATER LOCK 0800   71 77  190/  6/  7 1016.7F
AMERADA PASS     0800   67 69   CALM  /  1 1017.2S
$$



USA.gov is the U.S. government's official web portal to all federal, state and local government web resources and services.